FW1340 Weather Reports


time (UTC)temp
F
wind
direction
speed
knots
gust
knots
rain 1hr
in
rain 24hr
in
rain mn
in
humidity
%
barometer
mb
20260506014525 64 274 0.0 0.0 0.00 0.18 0.14 77 1015.5
20260506013026 64 232 0.0 0.0 0.00 0.18 0.14 75 1015.4
20260506011520 65 243 0.0 0.0 0.00 0.18 0.14 74 1015.4
20260506010025 66 234 0.0 0.0 0.00 0.18 0.14 74 1015.3
20260506004528 66 264 0.0 0.0 0.00 0.18 0.14 74 1015.3
20260506003017 67 273 0.0 0.0 0.00 0.18 0.14 72 1015.3
20260506001516 67 245 0.0 0.0 0.00 0.18 0.14 72 1015.2
20260506000019 67 266 0.0 0.0 0.00 0.18 0.14 73 1015.2
20260505234517 67 267 0.0 0.0 0.00 0.18 0.14 72 1015.1
20260505233012 67 271 0.0 0.0 0.00 0.18 0.14 74 1015.1
20260505231510 66 265 0.0 0.0 0.00 0.18 0.14 74 1015.1
20260505230009 64 288 0.0 0.0 0.00 0.18 0.14 76 1015.2
20260505224507 64 231 0.0 0.0 0.00 0.18 0.14 76 1015.3
20260505223103 64 197 0.0 0.0 0.00 0.18 0.14 76 1015.5
20260505221502 64 214 0.0 0.0 0.00 0.18 0.14 77 1015.6
20260505220101 63 267 0.0 0.0 0.00 0.18 0.14 79 1015.7
20260505214607 63 217 0.0 0.0 0.00 0.18 0.14 82 1015.7
20260505213059 61 211 0.0 0.0 0.00 0.18 0.14 83 1015.8
20260505211557 60 256 0.0 0.0 0.00 0.18 0.14 85 1016.0
20260505210052 60 242 0.0 0.0 0.01 0.18 0.14 85 1015.9
20260505204547 59 269 0.0 0.0 0.01 0.18 0.14 86 1016.0
20260505203147 60 263 0.0 0.0 0.01 0.18 0.14 86 1016.0
20260505201553 60 266 0.0 0.0 0.01 0.18 0.14 85 1016.0
20260505200045 60 226 0.0 0.0 0.00 0.17 0.13 83 1016.1
20260505194543 60 228 0.0 0.0 0.00 0.17 0.13 84 1016.2
20260505193047 59 254 0.0 0.0 0.00 0.17 0.13 85 1016.2
20260505191549 59 272 0.0 0.0 0.00 0.17 0.13 85 1016.2
20260505190039 59 246 0.0 0.0 0.00 0.17 0.13 86 1016.1
20260505184533 58 241 0.0 0.0 0.00 0.17 0.13 86 1016.0
20260505183045 58 298 0.0 0.0 0.00 0.17 0.13 88 1016.1
20260505181531 58 206 0.0 0.0 0.00 0.17 0.13 88 1016.0
20260505180034 58 221 0.0 0.0 0.00 0.17 0.13 89 1015.7
20260505174530 57 224 0.0 0.0 0.00 0.17 0.13 90 1015.7
20260505173028 57 217 0.0 0.0 0.00 0.17 0.13 91 1015.7
20260505171527 56 232 0.0 0.0 0.00 0.17 0.13 92 1015.7
20260505170016 55 213 0.0 0.0 0.00 0.17 0.13 93 1015.7
20260505164527 55 203 0.0 0.0 0.00 0.17 0.13 93 1015.7
20260505163013 55 225 0.0 0.0 0.00 0.17 0.13 94 1015.6
20260505161509 55 209 0.0 0.0 0.00 0.17 0.13 95 1015.6
20260505153004 54 167 0.0 0.0 0.00 0.17 0.13 96 1015.5
20260505151502 54 166 0.0 0.0 0.00 0.17 0.13 96 1015.4
20260505150115 53 146 0.0 0.0 0.00 0.17 0.13 96 1015.2
20260505140105 53 163 0.0 0.0 0.00 0.17 0.13 96 1014.9
20260505124546 52 161 0.0 0.0 0.00 0.17 0.13 95 1014.6
20260505123105 52 196 0.0 0.0 0.00 0.17 0.13 96 1014.5
20260505121544 52 209 0.0 0.0 0.00 0.17 0.13 96 1014.7
20260505120050 52 198 0.0 0.0 0.00 0.17 0.13 96 1014.6
20260505114552 53 185 0.0 0.0 0.00 0.17 0.13 95 1014.6
20260505113049 52 211 0.0 0.0 0.00 0.17 0.13 95 1014.6
20260505111540 52 232 0.0 0.0 0.02 0.17 0.13 95 1014.6
20260505101539 53 232 0.0 0.0 0.05 0.15 0.11 95 1014.9
20260505100034 53 220 0.0 0.0 0.07 0.15 0.11 95 1014.9
20260505094533 53 202 0.0 0.0 0.08 0.15 0.11 94 1015.0
20260505093040 53 194 0.0 0.0 0.07 0.13 0.09 94 1015.0
20260505091539 53 167 0.0 0.0 0.05 0.10 0.06 94 1015.2
20260505090043 53 174 0.0 0.0 0.03 0.08 0.04 94 1015.3
20260505084527 53 179 0.0 0.0 0.02 0.07 0.03 93 1015.4
20260505083027 53 186 0.0 0.0 0.02 0.06 0.02 93 1015.4
20260505081535 53 186 0.0 0.0 0.01 0.05 0.01 93 1015.4
20260505080043 53 186 0.0 0.0 0.01 0.05 0.01 93 1015.5
20260505074521 53 180 0.0 0.0 0.01 0.05 0.01 93 1015.8
20260505073020 53 163 0.0 0.0 0.01 0.04 0.00 92 1015.8
20260505071518 53 167 0.0 0.0 0.02 0.04 0.00 92 1015.7
20260505070021 53 271 0.0 0.0 0.03 0.04 0.00 92 1015.8
20260505064514 54 270 0.0 0.0 0.03 0.04 0.04 91 1015.6
20260505063014 54 258 0.0 0.0 0.02 0.03 0.03 91 1015.2
20260505061516 54 238 0.0 0.0 0.01 0.02 0.02 90 1015.2
20260505060017 54 268 0.0 0.0 0.00 0.01 0.01 90 1015.3
20260505054511 54 268 0.0 0.0 0.00 0.01 0.01 89 1015.4
20260505053016 54 268 0.0 0.0 0.00 0.01 0.01 89 1015.3
20260505051510 54 268 0.0 0.0 0.00 0.01 0.01 89 1015.5
20260505041507 56 319 0.0 0.0 0.01 0.01 0.01 84 1015.6
20260505040009 56 257 0.0 0.0 0.00 0.00 0.00 81 1015.4
20260505034508 57 284 0.0 0.0 0.00 0.00 0.00 78 1015.2
20260505033005 57 291 0.0 0.0 0.00 0.00 0.00 73 1015.1
20260505031505 57 256 0.0 0.0 0.00 0.00 0.00 72 1015.1
20260505030004 58 273 0.0 0.0 0.00 0.00 0.00 72 1014.7
20260505024504 58 271 0.0 0.0 0.00 0.00 0.00 71 1014.5
20260505023003 59 306 0.0 0.0 0.00 0.00 0.00 68 1014.6
20260505021504 60 272 0.0 0.0 0.00 0.00 0.00 68 1014.7
20260505020003 61 290 0.0 0.0 0.00 0.00 0.00 72 1014.5